GW1060 Weather Reports


time (UTC)temp
F
wind
direction
speed
knots
gust
knots
rain 1hr
in
rain 24hr
in
rain mn
in
humidity
%
barometer
mb
20260506114216 67 243 1.7 1.7 0.00 0.00 0.00 71 1010.3
20260506113714 67 249 5.2 8.7 0.00 0.00 0.00 71 1010.4
20260506113519 67 229 2.6 7.8 0.00 0.00 0.00 72 1010.6
20260506113211 67 259 0.9 0.9 0.00 0.00 0.00 72 1010.4
20260506112707 67 243 0.9 0.9 0.00 0.00 0.00 73 1010.3
20260506112526 66 227 1.7 5.2 0.00 0.00 0.00 73 1010.6
20260506112205 66 226 1.7 1.7 0.00 0.00 0.00 73 1010.4
20260506111702 66 233 5.2 7.0 0.00 0.00 0.00 74 1010.5
20260506111539 66 233 2.6 7.8 0.00 0.00 0.00 74 1010.6
20260506111200 66 244 4.3 6.1 0.00 0.00 0.00 74 1010.3
20260506110657 66 234 3.5 4.3 0.00 0.00 0.00 75 1010.2
20260506110547 65 240 0.9 5.2 0.00 0.00 0.00 76 1010.5
20260506110155 65 228 1.7 1.7 0.00 0.00 0.00 76 1010.3
20260506105651 65 227 1.7 1.7 0.00 0.00 0.00 76 1010.2
20260506105518 65 235 1.7 6.1 0.00 0.00 0.00 76 1010.3
20260506105148 65 236 0.0 0.0 0.00 0.00 0.00 77 1010.2
20260506104646 65 239 0.9 0.9 0.00 0.00 0.00 77 1010.2
20260506104527 64 234 1.7 6.1 0.00 0.00 0.00 77 1010.5
20260506104143 64 197 1.7 2.6 0.00 0.00 0.00 77 1010.2
20260506103640 64 248 0.0 0.9 0.00 0.00 0.00 77 1010.3
20260506103518 64 231 2.6 5.2 0.00 0.00 0.00 77 1010.4
20260506103137 64 232 2.6 2.6 0.00 0.00 0.00 77 1010.2
20260506102635 64 232 2.6 2.6 0.00 0.00 0.00 78 1010.0
20260506102526 64 237 1.7 6.1 0.00 0.00 0.00 78 1010.4
20260506102133 64 244 3.5 4.3 0.00 0.00 0.00 78 1010.1
20260506101629 64 246 0.0 0.0 0.00 0.00 0.00 78 1010.2
20260506101519 64 235 1.7 5.2 0.00 0.00 0.00 78 1010.4
20260506101126 64 234 0.9 1.7 0.00 0.00 0.00 78 1010.2
20260506100625 64 243 0.0 0.0 0.00 0.00 0.00 79 1010.1
20260506100527 63 234 1.7 5.2 0.00 0.00 0.00 79 1010.2
20260506100122 63 226 0.9 0.9 0.00 0.00 0.00 79 1010.0
20260506095621 63 250 0.9 1.7 0.00 0.00 0.00 79 1010.1
20260506095540 63 243 0.9 1.7 0.00 0.00 0.00 79 1010.3
20260506095117 63 241 0.0 0.9 0.00 0.00 0.00 79 1010.1
20260506094614 63 249 0.0 0.0 0.00 0.00 0.00 79 1010.2
20260506094547 63 233 0.9 4.3 0.00 0.00 0.00 79 1010.3
20260506094112 63 241 1.7 2.6 0.00 0.00 0.00 79 1010.2
20260506093610 63 244 0.0 0.0 0.00 0.00 0.00 79 1010.1
20260506093519 63 243 0.9 1.7 0.00 0.00 0.00 78 1010.3
20260506093107 64 256 0.9 0.9 0.00 0.00 0.00 78 1010.1
20260506092605 64 243 0.9 1.7 0.00 0.00 0.00 78 1010.0
20260506092527 64 235 0.9 4.3 0.00 0.00 0.00 78 1010.3
20260506092101 64 242 0.9 1.7 0.00 0.00 0.00 78 1010.0
20260506091600 64 217 1.7 2.6 0.00 0.00 0.00 78 1010.1
20260506091539 64 241 0.9 1.7 0.00 0.00 0.00 77 1010.4
20260506091057 64 248 0.0 0.9 0.00 0.00 0.00 77 1010.0
20260506090555 64 252 0.0 0.0 0.00 0.00 0.00 77 1010.2
20260506090547 64 238 0.9 2.6 0.00 0.00 0.00 77 1010.4
20260506090051 64 235 0.9 0.9 0.00 0.00 0.00 76 1010.0
20260506085548 64 248 0.0 0.9 0.00 0.00 0.00 76 1010.1
20260506085519 64 245 0.0 0.9 0.00 0.00 0.00 76 1010.5
20260506085044 64 241 0.9 0.9 0.00 0.00 0.00 76 1010.3
20260506084541 65 230 1.7 1.7 0.00 0.00 0.00 76 1010.3
20260506084527 65 233 1.7 4.3 0.00 0.00 0.00 76 1010.5
20260506084037 65 246 0.9 0.9 0.00 0.00 0.00 75 1010.4
20260506083535 65 191 2.6 2.6 0.00 0.00 0.00 75 1010.3
20260506083519 65 228 1.7 6.1 0.00 0.00 0.00 75 1010.6
20260506083032 65 231 0.9 0.9 0.00 0.00 0.00 75 1010.4
20260506082529 65 208 2.6 2.6 0.00 0.00 0.00 74 1010.3
20260506082527 65 224 2.6 6.1 0.00 0.00 0.00 74 1010.5
20260506082025 65 231 3.5 4.3 0.00 0.00 0.00 74 1010.3
20260506081523 65 218 3.5 4.3 0.00 0.00 0.00 74 1010.3
20260506081519 65 233 1.7 5.2 0.00 0.00 0.00 74 1010.7
20260506081020 65 243 1.7 1.7 0.00 0.00 0.00 74 1010.4
20260506080547 65 239 0.9 2.6 0.00 0.00 0.00 73 1010.6
20260506080517 65 243 0.0 0.0 0.00 0.00 0.00 73 1010.5
20260506073519 66 230 2.6 6.1 0.00 0.00 0.00 71 1010.6
20260506073501 66 251 0.9 1.7 0.00 0.00 0.00 71 1010.5
20260506072958 66 235 1.7 1.7 0.00 0.00 0.00 71 1010.4
20260506072527 66 234 0.9 2.6 0.00 0.00 0.00 71 1010.6
20260506072455 66 246 0.9 0.9 0.00 0.00 0.00 71 1010.2
20260506071953 66 240 0.9 0.9 0.00 0.00 0.00 71 1010.3
20260506071532 66 240 0.9 1.7 0.00 0.00 0.00 70 1010.6
20260506071450 66 246 0.0 0.9 0.00 0.00 0.00 70 1010.3
20260506070947 66 213 3.5 5.2 0.00 0.00 0.00 70 1010.4
20260506070527 67 244 1.7 5.2 0.00 0.00 0.00 69 1010.7
20260506070444 67 238 1.7 1.7 0.00 0.00 0.00 69 1010.5
20260506062422 67 229 1.7 2.6 0.00 0.00 0.00 68 1010.4
20260506061917 67 246 0.9 0.9 0.00 0.00 0.00 67 1010.5
20260506061532 67 230 0.9 1.7 0.00 0.00 0.00 66 1010.7
20260506061414 67 272 0.9 1.7 0.00 0.00 0.00 67 1010.4
20260506060913 67 243 0.9 0.9 0.00 0.00 0.00 66 1010.5
20260506060527 67 226 2.6 7.0 0.00 0.00 0.00 66 1010.6
20260506060410 67 234 0.0 0.9 0.00 0.00 0.00 65 1010.4
20260506051342 69 235 3.5 4.3 0.00 0.00 0.00 61 1010.8
20260506050839 69 231 2.6 2.6 0.00 0.00 0.00 60 1011.0
20260506050527 69 221 2.6 7.0 0.00 0.00 0.00 60 1011.3
20260506050337 69 232 0.9 2.6 0.00 0.00 0.00 61 1011.0
20260506044827 69 245 2.6 2.6 0.00 0.00 0.00 59 1011.0
20260506044527 69 235 3.5 12.2 0.00 0.00 0.00 59 1011.3
20260506044325 69 253 0.9 1.7 0.00 0.00 0.00 59 1011.0
20260506043822 69 251 0.9 1.7 0.00 0.00 0.00 60 1010.9
20260506043519 69 233 0.9 4.3 0.00 0.00 0.00 59 1011.1
20260506043319 69 247 0.9 0.9 0.00 0.00 0.00 59 1010.9
20260506042817 70 236 1.7 1.7 0.00 0.00 0.00 59 1010.9
20260506042607 70 223 1.7 6.1 0.00 0.00 0.00 58 1011.1
20260506042317 70 223 2.6 2.6 0.00 0.00 0.00 58 1010.9
20260506041815 70 269 1.7 1.7 0.00 0.00 0.00 58 1011.0
20260506041519 70 233 0.9 4.3 0.00 0.00 0.00 58 1011.1
20260506041311 70 250 0.9 0.9 0.00 0.00 0.00 58 1010.9
20260506040809 70 196 2.6 2.6 0.00 0.00 0.00 57 1010.9
20260506040527 70 236 1.7 2.6 0.00 0.00 0.00 58 1011.1
20260506040306 70 234 2.6 2.6 0.00 0.00 0.00 58 1010.9
20260506035802 70 230 0.9 0.9 0.00 0.00 0.00 57 1010.8
20260506035519 70 223 2.6 5.2 0.00 0.00 0.00 57 1011.1
20260506035259 70 194 3.5 5.2 0.00 0.00 0.00 57 1010.9
20260506034756 70 239 0.0 0.0 0.00 0.00 0.00 57 1010.9
20260506034607 70 238 1.7 7.0 0.00 0.00 0.00 56 1011.1
20260506034253 70 236 2.6 2.6 0.00 0.00 0.00 56 1010.8
20260506033750 71 243 1.7 2.6 0.00 0.00 0.00 56 1011.0
20260506033519 71 233 2.6 5.2 0.00 0.00 0.00 56 1011.1
20260506033247 71 243 1.7 2.6 0.00 0.00 0.00 56 1010.9
20260506032744 71 195 0.9 1.7 0.00 0.00 0.00 55 1010.9
20260506032528 71 239 4.3 11.3 0.00 0.00 0.00 55 1011.1
20260506032241 71 271 2.6 4.3 0.00 0.00 0.00 55 1010.8
20260506031738 71 246 1.7 1.7 0.00 0.00 0.00 56 1010.8
20260506031520 71 233 2.6 7.0 0.00 0.00 0.00 55 1010.9
20260506031235 71 232 1.7 1.7 0.00 0.00 0.00 55 1010.6
20260506030733 71 239 2.6 4.3 0.00 0.00 0.00 55 1010.7
20260506030527 71 228 2.6 8.7 0.00 0.00 0.00 55 1010.9
20260506030231 71 236 2.6 2.6 0.00 0.00 0.00 55 1010.7
20260506025727 72 233 2.6 2.6 0.00 0.00 0.00 54 1010.8
20260506025540 72 238 1.7 4.3 0.00 0.00 0.00 54 1010.9
20260506025224 72 247 2.6 2.6 0.00 0.00 0.00 54 1010.6
20260506024720 72 212 7.0 8.7 0.00 0.00 0.00 53 1010.6
20260506024548 72 232 4.3 13.0 0.00 0.00 0.00 52 1010.9
20260506024217 73 240 6.1 7.8 0.00 0.00 0.00 52 1010.8
20260506023713 73 199 5.2 6.1 0.00 0.00 0.00 52 1010.8
20260506023519 73 225 4.3 9.6 0.00 0.00 0.00 52 1011.0
20260506023211 73 234 6.1 7.0 0.00 0.00 0.00 52 1010.6
20260506022707 73 225 4.3 5.2 0.00 0.00 0.00 51 1010.8
20260506022527 73 227 2.6 7.0 0.00 0.00 0.00 52 1010.9
20260506022205 73 229 0.0 0.9 0.00 0.00 0.00 51 1010.6
20260506021703 73 208 1.7 2.6 0.00 0.00 0.00 51 1010.4
20260506021520 73 230 4.3 11.3 0.00 0.00 0.00 50 1010.8
20260506021200 73 247 7.8 9.6 0.00 0.00 0.00 50 1010.6
20260506020657 73 193 3.5 4.3 0.00 0.00 0.00 50 1010.5
20260506020528 74 233 4.3 13.0 0.00 0.00 0.00 49 1010.7
20260506020154 74 235 3.5 4.3 0.00 0.00 0.00 49 1010.4
20260506015652 76 254 5.2 6.1 0.00 0.00 0.00 43 1010.5
20260506015520 76 228 5.2 12.2 0.00 0.00 0.00 42 1010.7
20260506015149 76 209 4.3 6.1 0.00 0.00 0.00 42 1010.5
20260506014647 76 236 4.3 7.8 0.00 0.00 0.00 42 1010.3
20260506014528 76 245 3.5 9.6 0.00 0.00 0.00 41 1010.5
20260506014142 76 246 5.2 7.0 0.00 0.00 0.00 41 1010.1
20260506013640 76 226 2.6 2.6 0.00 0.00 0.00 41 1010.0
20260506013520 76 221 5.2 14.8 0.00 0.00 0.00 41 1010.3
20260506013137 76 216 7.8 13.0 0.00 0.00 0.00 41 1010.1
20260506012633 77 217 3.5 4.3 0.00 0.00 0.00 40 1009.9
20260506012528 77 231 3.5 7.0 0.00 0.00 0.00 40 1010.1
20260506012130 77 258 2.6 2.6 0.00 0.00 0.00 40 1010.1
20260506011628 77 210 3.5 6.1 0.00 0.00 0.00 39 1010.0
20260506011520 77 239 3.5 8.7 0.00 0.00 0.00 39 1009.9
20260506011123 77 239 1.7 1.7 0.00 0.00 0.00 39 1009.6
20260506010623 78 220 4.3 5.2 0.00 0.00 0.00 39 1009.7
20260506010528 78 230 7.8 14.8 0.00 0.00 0.00 38 1009.9
20260506010119 77 225 6.1 8.7 0.00 0.00 0.00 39 1009.7
20260506005616 78 221 3.5 5.2 0.00 0.00 0.00 38 1009.7
20260506005520 78 243 3.5 8.7 0.00 0.00 0.00 38 1009.8
20260506005112 78 205 1.7 1.7 0.00 0.00 0.00 38 1009.5
20260506004609 78 229 5.2 7.8 0.00 0.00 0.00 37 1009.4
20260506004528 78 221 3.5 8.7 0.00 0.00 0.00 37 1009.7
20260506004106 78 210 2.6 4.3 0.00 0.00 0.00 36 1009.3
20260506003603 78 250 2.6 5.2 0.00 0.00 0.00 35 1009.3
20260506003520 78 222 3.5 8.7 0.00 0.00 0.00 35 1009.5
20260506003059 78 219 5.2 7.0 0.00 0.00 0.00 35 1009.3
20260506002555 79 247 3.5 5.2 0.00 0.00 0.00 34 1009.2
20260506002528 79 220 5.2 12.2 0.00 0.00 0.00 34 1009.5
20260506002051 79 241 2.6 5.2 0.00 0.00 0.00 34 1009.1
20260506001547 79 213 6.1 8.7 0.00 0.00 0.00 33 1009.1
20260506001520 79 211 4.3 8.7 0.00 0.00 0.00 33 1009.4
20260506001045 79 210 5.2 7.8 0.00 0.00 0.00 33 1009.1
20260506000542 79 257 3.5 6.1 0.00 0.00 0.00 33 1009.0
20260506000528 79 235 3.5 8.7 0.00 0.00 0.00 33 1009.2
20260506000039 79 191 4.3 6.1 0.00 0.00 0.00 32 1009.1
20260505235537 80 250 6.1 7.0 0.00 0.00 0.00 32 1009.1
20260505235520 79 241 5.2 9.6 0.00 0.00 0.00 32 1009.2
20260505235034 79 281 4.3 5.2 0.00 0.00 0.00 32 1009.0
20260505234531 79 212 2.6 2.6 0.00 0.00 0.00 32 1009.0
20260505234528 79 235 3.5 8.7 0.00 0.00 0.00 32 1009.2
20260505234027 79 264 5.2 7.0 0.00 0.00 0.00 32 1009.0
20260505233525 80 237 1.7 1.7 0.00 0.00 0.00 32 1008.8
20260505233520 80 233 2.6 7.0 0.00 0.00 0.00 31 1009.0
20260505233022 80 236 2.6 2.6 0.00 0.00 0.00 30 1008.8
20260505232528 80 244 2.6 5.2 0.00 0.00 0.00 30 1008.9
20260505232520 80 234 3.5 4.3 0.00 0.00 0.00 30 1008.7
20260505232017 80 201 4.3 7.8 0.00 0.00 0.00 30 1008.7
20260505231520 80 240 5.2 13.0 0.00 0.00 0.00 29 1008.8
20260505231514 80 240 6.1 7.8 0.00 0.00 0.00 29 1008.5
20260505231013 80 248 5.2 6.1 0.00 0.00 0.00 30 1008.6
20260505230528 81 240 6.1 17.4 0.00 0.00 0.00 29 1008.6
20260505230510 81 263 4.3 5.2 0.00 0.00 0.00 29 1008.6
20260505230007 81 234 6.1 8.7 0.00 0.00 0.00 29 1008.3
20260505225520 81 249 2.6 7.8 0.00 0.00 0.00 29 1008.6
20260505225504 81 213 3.5 5.2 0.00 0.00 0.00 29 1008.3
20260505224959 81 208 3.5 6.1 0.00 0.00 0.00 29 1008.3
20260505224531 82 261 5.2 13.9 0.00 0.00 0.00 28 1008.5
20260505224456 82 270 1.7 5.2 0.00 0.00 0.00 28 1008.2
20260505223953 82 243 2.6 5.2 0.00 0.00 0.00 28 1008.1
20260505223540 82 232 6.1 13.9 0.00 0.00 0.00 28 1008.3
20260505223450 82 286 2.6 5.2 0.00 0.00 0.00 28 1008.1
20260505222947 83 216 9.6 13.0 0.00 0.00 0.00 27 1008.1
20260505222528 83 236 5.2 12.2 0.00 0.00 0.00 27 1008.4
20260505222443 83 249 3.5 5.2 0.00 0.00 0.00 28 1008.1
20260505221939 83 241 6.1 7.8 0.00 0.00 0.00 27 1008.1
20260505221540 83 243 5.2 13.9 0.00 0.00 0.00 27 1008.2
20260505221436 83 264 6.1 7.0 0.00 0.00 0.00 27 1008.0
20260505220933 83 236 5.2 6.1 0.00 0.00 0.00 28 1008.0
20260505220528 82 251 5.2 13.0 0.00 0.00 0.00 28 1008.3
20260505220430 82 282 6.1 8.7 0.00 0.00 0.00 28 1007.9
20260505215928 82 243 7.8 12.2 0.00 0.00 0.00 28 1008.1
20260505215520 82 243 6.1 13.9 0.00 0.00 0.00 28 1008.2
20260505215426 82 247 2.6 4.3 0.00 0.00 0.00 28 1008.1
20260505214924 82 255 9.6 13.0 0.00 0.00 0.00 28 1007.9
20260505214528 82 255 6.1 15.6 0.00 0.00 0.00 28 1008.1
20260505214421 82 256 7.8 12.2 0.00 0.00 0.00 28 1007.7
20260505213918 82 291 7.8 11.3 0.00 0.00 0.00 28 1007.8
20260505213520 82 239 7.0 17.4 0.00 0.00 0.00 28 1008.0
20260505213416 82 193 9.6 14.8 0.00 0.00 0.00 28 1007.9
20260505212912 83 260 3.5 6.1 0.00 0.00 0.00 28 1007.6
20260505212528 82 242 7.8 20.9 0.00 0.00 0.00 28 1008.0
20260505212409 82 225 7.0 11.3 0.00 0.00 0.00 28 1007.6
20260505211905 83 255 6.1 9.6 0.00 0.00 0.00 28 1007.8
20260505211520 83 245 5.2 14.8 0.00 0.00 0.00 28 1007.8
20260505211403 84 287 7.0 9.6 0.00 0.00 0.00 28 1007.6
20260505210859 84 299 7.8 8.7 0.00 0.00 0.00 27 1007.7
20260505210528 83 245 7.0 17.4 0.00 0.00 0.00 27 1007.8
20260505210356 83 246 8.7 12.2 0.00 0.00 0.00 27 1007.6
20260505205853 84 240 6.1 9.6 0.00 0.00 0.00 27 1007.7
20260505205520 84 239 7.8 17.4 0.00 0.00 0.00 27 1007.9
20260505205351 84 228 10.4 15.6 0.00 0.00 0.00 27 1007.8
20260505204848 84 246 7.0 11.3 0.00 0.00 0.00 27 1007.4
20260505204528 84 247 6.1 19.1 0.00 0.00 0.00 28 1007.9
20260505204346 84 209 4.3 5.2 0.00 0.00 0.00 28 1007.6
20260505203843 83 216 3.5 7.0 0.00 0.00 0.00 27 1007.6
20260505203520 83 247 5.2 11.3 0.00 0.00 0.00 28 1008.0
20260505203339 83 250 4.3 6.1 0.00 0.00 0.00 29 1007.7
20260505202836 84 228 11.3 17.4 0.00 0.00 0.00 28 1008.1
20260505202528 83 230 6.1 19.1 0.00 0.00 0.00 28 1008.1
20260505202331 83 260 7.0 8.7 0.00 0.00 0.00 28 1007.9
20260505201828 84 238 7.8 17.4 0.00 0.00 0.00 28 1007.8
20260505201520 84 240 6.1 18.2 0.00 0.00 0.00 27 1008.1
20260505201326 84 225 3.5 6.1 0.00 0.00 0.00 27 1007.8
20260505200824 84 237 4.3 7.0 0.00 0.00 0.00 27 1007.9
20260505200528 83 238 5.2 14.8 0.00 0.00 0.00 29 1008.0
20260505200320 83 250 5.2 7.8 0.00 0.00 0.00 29 1007.7
20260505195816 84 233 13.0 14.8 0.00 0.00 0.00 29 1007.9
20260505195520 84 236 5.2 17.4 0.00 0.00 0.00 29 1008.0
20260505195314 84 259 2.6 5.2 0.00 0.00 0.00 30 1007.9
20260505194811 83 218 6.1 14.8 0.00 0.00 0.00 30 1007.8
20260505194528 84 247 7.0 19.1 0.00 0.00 0.00 30 1008.2
20260505194308 84 239 9.6 12.2 0.00 0.00 0.00 30 1007.9
20260505193803 84 223 4.3 6.1 0.00 0.00 0.00 30 1008.0
20260505193520 84 219 7.0 17.4 0.00 0.00 0.00 30 1008.4
20260505193301 84 208 7.8 13.9 0.00 0.00 0.00 30 1008.2
20260505192759 84 222 7.8 8.7 0.00 0.00 0.00 29 1008.4
20260505192528 84 221 7.0 19.1 0.00 0.00 0.00 29 1008.5
20260505192256 84 232 3.5 6.1 0.00 0.00 0.00 30 1008.3
20260505191754 84 200 6.1 9.6 0.00 0.00 0.00 30 1008.2
20260505191520 84 250 7.0 14.8 0.00 0.00 0.00 29 1008.7
20260505191252 84 245 11.3 13.9 0.00 0.00 0.00 29 1008.4
20260505190748 84 138 7.8 13.0 0.00 0.00 0.00 29 1008.6
20260505190528 83 237 7.0 13.0 0.00 0.00 0.00 30 1008.7
20260505190243 84 259 7.8 11.3 0.00 0.00 0.00 30 1008.6
20260505185740 83 264 3.5 5.2 0.00 0.00 0.00 31 1008.6
20260505185520 84 236 6.1 17.4 0.00 0.00 0.00 30 1008.9
20260505185237 84 23 7.0 9.6 0.00 0.00 0.00 30 1008.5
20260505184733 83 218 10.4 19.1 0.00 0.00 0.00 30 1008.9
20260505184548 83 210 7.8 17.4 0.00 0.00 0.00 31 1009.2
20260505184230 84 228 7.8 13.0 0.00 0.00 0.00 32 1008.8
20260505183727 83 212 4.3 6.1 0.00 0.00 0.00 32 1009.0
20260505183521 83 225 8.7 23.5 0.00 0.00 0.00 31 1009.2
20260505183224 83 227 9.6 13.0 0.00 0.00 0.00 30 1008.8
20260505182721 83 216 11.3 19.1 0.00 0.00 0.00 32 1009.0
20260505182528 83 220 6.1 12.2 0.00 0.00 0.00 33 1009.1
20260505182218 83 239 7.8 12.2 0.00 0.00 0.00 33 1008.9
20260505181714 83 241 5.2 8.7 0.00 0.00 0.00 34 1009.2
20260505181521 83 243 4.3 8.7 0.00 0.00 0.00 34 1009.2
20260505181212 83 162 3.5 5.2 0.00 0.00 0.00 35 1009.0
20260505180708 83 246 5.2 8.7 0.00 0.00 0.00 33 1009.0
20260505180528 84 245 4.3 11.3 0.00 0.00 0.00 35 1009.3
20260505180205 84 214 5.2 7.8 0.00 0.00 0.00 36 1009.0
20260505175701 83 207 4.3 5.2 0.00 0.00 0.00 36 1009.1
20260505175520 82 237 6.1 13.0 0.00 0.00 0.00 36 1009.5
20260505175157 82 243 6.1 7.8 0.00 0.00 0.00 35 1009.2
20260505174654 83 213 0.9 0.9 0.00 0.00 0.00 36 1009.1
20260505174528 82 248 6.1 18.2 0.00 0.00 0.00 36 1009.5
20260505174150 82 251 4.3 7.0 0.00 0.00 0.00 36 1009.2
20260505173647 82 243 9.6 13.9 0.00 0.00 0.00 36 1009.3
20260505173520 82 237 5.2 14.8 0.00 0.00 0.00 37 1009.6
20260505173144 82 227 11.3 14.8 0.00 0.00 0.00 37 1009.5
20260505172641 81 261 2.6 5.2 0.00 0.00 0.00 38 1009.6
20260505172528 81 232 5.2 13.9 0.00 0.00 0.00 38 1010.0
20260505172137 81 257 7.8 12.2 0.00 0.00 0.00 39 1009.7
20260505171632 81 198 4.3 6.1 0.00 0.00 0.00 38 1009.6
20260505171532 81 254 4.3 7.8 0.00 0.00 0.00 39 1009.9
20260505171129 81 246 5.2 7.0 0.00 0.00 0.00 38 1009.7
20260505170627 81 239 1.7 1.7 0.00 0.00 0.00 39 1009.7
20260505170529 81 234 3.5 8.7 0.00 0.00 0.00 39 1010.0
20260505170123 80 219 4.3 7.0 0.00 0.00 0.00 39 1009.8
20260505165618 80 263 6.1 7.8 0.00 0.00 0.00 40 1009.9
20260505165520 80 241 5.2 11.3 0.00 0.00 0.00 41 1010.2
20260505165114 80 203 4.3 5.2 0.00 0.00 0.00 41 1010.0
20260505164609 80 248 3.5 5.2 0.00 0.00 0.00 41 1010.0
20260505164529 79 245 5.2 11.3 0.00 0.00 0.00 41 1010.4
20260505164108 80 356 5.2 6.1 0.00 0.00 0.00 41 1010.2
20260505163606 80 243 5.2 7.0 0.00 0.00 0.00 40 1010.3
20260505163521 79 256 2.6 7.8 0.00 0.00 0.00 41 1010.5
20260505163103 79 237 3.5 4.3 0.00 0.00 0.00 42 1010.1
20260505162600 80 260 6.1 9.6 0.00 0.00 0.00 41 1010.4
20260505162529 80 265 3.5 9.6 0.00 0.00 0.00 41 1010.7
20260505162058 79 272 2.6 2.6 0.00 0.00 0.00 41 1010.5
20260505161601 78 224 5.2 12.2 0.00 0.00 0.00 43 1010.8
20260505161554 78 207 7.0 8.7 0.00 0.00 0.00 43 1010.3
20260505161052 79 222 8.7 9.6 0.00 0.00 0.00 42 1010.6
20260505160550 78 222 1.7 2.6 0.00 0.00 0.00 43 1010.6
20260505153026 76 235 2.6 4.3 0.00 0.00 0.00 47 1011.1
20260505152529 75 240 4.3 9.6 0.00 0.00 0.00 47 1011.4
20260505152523 75 219 4.3 5.2 0.00 0.00 0.00 47 1011.2
20260505152019 75 229 2.6 2.6 0.00 0.00 0.00 47 1011.2
20260505151541 75 237 3.5 8.7 0.00 0.00 0.00 47 1011.4
20260505151514 75 222 4.3 6.1 0.00 0.00 0.00 47 1011.1
20260505151012 74 232 3.5 5.2 0.00 0.00 0.00 48 1011.1
20260505150529 74 231 5.2 11.3 0.00 0.00 0.00 48 1011.5
20260505150508 74 238 7.0 8.7 0.00 0.00 0.00 48 1011.3
20260505140529 70 229 4.3 9.6 0.00 0.00 0.00 55 1011.9
20260505140433 70 201 7.0 8.7 0.00 0.00 0.00 54 1011.5
20260505124846 65 241 1.7 1.7 0.00 0.00 0.00 70 1011.4
20260505124529 64 245 1.7 2.6 0.00 0.00 0.00 71 1011.7
20260505124343 64 246 0.9 1.7 0.00 0.00 0.00 71 1011.3
20260505123839 64 241 0.9 0.9 0.00 0.00 0.00 72 1011.3
20260505123601 63 239 0.9 4.3 0.00 0.00 0.00 74 1011.7
20260505123336 63 256 1.7 1.7 0.00 0.00 0.00 73 1011.6
20260505122832 62 244 0.9 0.9 0.00 0.00 0.00 76 1011.4
20260505122529 61 244 0.9 1.7 0.00 0.00 0.00 77 1011.8
20260505122330 61 237 0.9 0.9 0.00 0.00 0.00 77 1011.6
20260505121826 60 245 0.9 0.9 0.00 0.00 0.00 79 1011.6
20260505121541 59 241 0.9 0.9 0.00 0.00 0.00 80 1012.0
20260505121323 59 247 0.9 1.7 0.00 0.00 0.00 80 1011.8
20260505120819 59 259 0.0 0.0 0.00 0.00 0.00 81 1011.9
20260505120529 58 245 0.9 2.6 0.00 0.00 0.00 82 1012.2
20260505120315 58 251 0.9 0.9 0.00 0.00 0.00 82 1011.9
20260505115814 57 250 0.9 0.9 0.00 0.00 0.00 83 1011.9
20260505115521 56 246 0.0 1.7 0.00 0.00 0.00 86 1012.0
20260505115312 56 264 0.0 0.0 0.00 0.00 0.00 86 1011.6
20260505114809 56 261 0.0 0.0 0.00 0.00 0.00 87 1011.7
20260505114529 55 0.0 0.0 0.00 0.00 0.00 88 1012.0